www.pogodaiklimat.ru

Погода и климат >> Архив погоды >> Россия >> Волгоградская область >> Калач-на-Дону


ПОГОДА в Калаче-на-Дону

  • Прогноз погоды в Калаче-на-Дону
  • Монитор погоды в Калаче-на-Дону
  • Климат города

АРХИВ ПОГОДЫ в Калаче-на-Дону

Время (UTC), дата Ветер
(напр.,м/с)
 
Видим.   Явления Облачность Т
(С)
Тd
(С)
f
(%)
Тe
(С)
Тes
(С)
Комфортность P
(гПа)
Po
(гПа)
Тmin
(С)
Tmax
(С)
R
(мм)
R24
(мм)
S
(см)
06 17.05 С 1 10 км слабый дождь 10/10 300 м
[Frnb Ns]
+11.2 +8.3 82 +11 +11 1018.7 1014.1
09 17.05 Ю 1 10 км слабый дождь 10/10 300 м
[Frnb Ns]
+13.1 +10.2 83 +13 +13 1018.3 1013.7
12 17.05 Ю 1 10 км слабый дождь 10/10 300 м
[Frnb Ns]
+14.4 +12.3 87 +15 +15 1017.9 1013.3
15 17.05 Ю 2 20 км {дождь} 10/10 600 м
[Sc]
+14.6 +12.2 86 +14 +14 1017.5 1012.9 +14.8 3
18 17.05 СЗ 3 10 км {дождь} 10/10 600 м
[Sc]
+13.2 +10.8 85 +12 +12 1018.1 1013.5
21 17.05 С 2 10 км 10/10 600 м
[Sc]
+11.7 +9.9 89 +11 +11 1017.7 1013.0
00 18.05 СЗ 2 10 км 10/10 600 м
[Sc]
+9.8 +7.9 88 +8 +8 1017.7 1013.0
03 18.05 СЗ 1 20 км 3/3 600 м
[Sc]
+8.8 +6.5 85 +8 +9 1017.9 1013.2 +7.7
06 18.05 СЗ 2 20 км 4/1 1000 м
[Cu hum Ac trans]
+13.9 +5.2 56 +14 +21 1017.7 1013.2
09 18.05 З 1 20 км 9/0
[Ac trans]
+16.1 +2.2 39 +17 +26 1017.2 1012.7
12 18.05 ЮЗ 2 20 км в посл. час ливневой дождь 9/5 600 м
[Cb cap Ac trans]
+15.1 +5.7 53 +15 +18 1017.5 1012.9
15 18.05 Ю 1 20 км 8/0
[Ac trans]
+15.9 +4.1 45 +17 +18 1016.5 1012.0 +17.0 0.3
18 18.05 ЮВ 1 10 км ясно +9.2 +7.3 88 +9 +9 1016.9 1012.2
21 18.05 С 1 4000 м дымка 6/0
[Ci]
+7.4 +6.3 93 +6 +6 1016.5 1011.8
00 19.05 штиль 0 4000 м дымка ясно +4.8 +3.9 94 +4 +4 1015.5 1010.8
03 19.05 СЗ 1 200 м туман ?/? +6.9 +6.2 95 +6 +6 1015.0 1010.3 +4.4
06 19.05 ЮЗ 1 20 км {туман} 8/8 600 м
[Cb cap]
+15.2 +9.9 71 +16 +18 1014.4 1009.9
09 19.05 ЮЗ 2 20 км 8/8 600 м
[Cb cap]
+19.4 +4.1 36 +20 +24 1013.7 1009.3
12 19.05 ЮЗ 2 20 км 9/9 600 м
[Cb cap Ac trans]
+21.6 +3.5 30 +22 +23 комфорт 1012.4 1007.9
15 19.05 Ю 5
{10}
20 км 9/9 600 м
[Cb cap]
+17.4 +12.0 71 +17 +17 1012.2 1007.8 +21.7
18 19.05 Ю 1
{10}
10 км 9/9 600 м
[Sc]
+14.7 +9.9 73 +15 +15 1012.7 1008.2
21 19.05 С 1 10 км 8/0
[Ac trans]
+14.2 +11.1 82 +15 +15 1012.5 1008.0
00 20.05 штиль 0 10 км 8/0
[Ac trans]
+13.0 +11.3 89 +12 +12 1011.8 1007.2
03 20.05 С 1 4000 м дымка 10/10 600 м
[Sc]
+12.8 +11.5 92 +13 +13 1010.9 1006.3 +12.1
06 20.05 С 2 20 км 10/10 600 м
[Sc]
+15.4 +11.9 80 +15 +15 1010.3 1005.8
09 20.05 С 2 20 км 10/10 600 м
[Sc]
+17.6 +10.8 64 +18 +18 1009.1 1004.6
12 20.05 СЗ 2 10 км слабый дождь 10/0 300 м
[As op]
+15.6 +12.8 83 +15 +18 1008.3 1003.8
15 20.05 СЗ 3 10 км слабый дождь 10/0 300 м
[As op]
+15.2 +12.8 86 +14 +15 1007.6 1003.1 +17.7 4
18 20.05 СЗ 4 10 км {дождь} 9/9 600 м
[Cb cap]
+14.3 +12.0 86 +13 +13 1006.7 1002.2
21 20.05 СЗ 3 10 км 10/10 600 м
[Cb cap]
+13.7 +11.3 85 +13 +13 1005.5 1001.0
03 21.05 СЗ 4 20 км 10/10 600 м
[Sc]
+13.5 +11.3 87 +12 +12 1003.1 998.6 +12.3 0.3
06 21.05 СЗ 4 20 км 10/10 600 м
[Sc]
+15.7 +11.7 77 +15 +15 1002.1 997.7
09 21.05 З 5-10
{12}
20 км 10/10 600 м
[Sc]
+17.3 +12.1 71 +17 +17 1002.1 997.6
12 21.05 СЗ 6-11
{12}
20 км 10/10 600 м
[Sc]
+16.1 +12.7 80 +15 +15 1002.7 998.2
15 21.05 СЗ 4
{11}
20 км 10/10 600 м
[Sc]
+16.3 +12.3 77 +16 +16 1003.3 998.8 +17.6
18 21.05 СЗ 4 10 км 10/10 600 м
[Sc]
+16.1 +11.7 75 +15 +15 1003.9 999.4
21 21.05 СЗ 3
{10}
10 км 10/10 600 м
[Sc]
+15.8 +12.1 79 +15 +15 1004.3 999.8
00 22.05 СЗ 3 10 км 10/10 600 м
[Sc]
+14.7 +11.7 82 +14 +14 1004.0 999.5
03 22.05 З 3 20 км 10/10 600 м
[Sc]
+13.7 +11.4 86 +13 +13 1004.2 999.7 +13.7
06 22.05 СЗ 2 20 км 10/10 600 м
[Sc]
+15.4 +11.8 79 +15 +15 1004.9 1000.4 +13.6
09 22.05 СЗ 3 20 км 10/10 600 м
[Sc]
+18.1 +12.2 68 +18 +18 1004.4 1000.0
12 22.05 С 4
{10}
20 км 10/10 600 м
[Sc]
+14.9 +10.2 73 +14 +14 1005.9 1001.4
15 22.05 С 2 20 км в посл. час ливневой дождь 10/10 600 м
[Cb cap]
+12.4 +8.8 79 +12 +12 1008.4 1003.8 +19.9 0.0
18 22.05 СЗ 2 10 км 8/8 600 м
[Sc]
+12.3 +9.1 81 +11 +11 1010.1 1005.6
21 22.05 СЗ 1 10 км 6/6 600 м
[Sc]
+9.3 +6.1 80 +9 +9 1010.9 1006.3
00 23.05 СЗ 2 10 км 8/8 600 м
[Sc]
+9.3 +4.7 73 +8 +8 1011.4 1006.8
03 23.05 СЗ 2 20 км 8/0
[Ac lent Ci fib]
+9.2 +4.6 73 +8 +9 1012.7 1008.1 +7.6
06 23.05 С 4 20 км 8/0
[Ci fib]
+15.2 +1.1 38 +14 +20 1014.0 1009.4
09 23.05 С 3 20 км 8/4 1000 м
[Cu hum Ci]
+16.6 -0.4 31 +16 +24 1015.3 1010.8
12 23.05 С 4 20 км 8/4 1000 м
[Cu hum Ci fib]
+18.1 -0.0 29 +18 +22 1015.5 1011.0
15 23.05 С 3 20 км 3/1 1000 м
[Cu hum Ci fib]
+17.3 -1.1 29 +17 +19 1015.8 1011.3 +18.3
18 23.05 СЗ 1 10 км 3/0
[Ci fib]
+10.7 +4.2 64 +11 +11 1018.2 1013.6
21 23.05 штиль 0 10 км ясно +7.0 +4.4 84 +6 +6 1018.9 1014.2
00 24.05 штиль 0 10 км 4/0
[Ci fib]
+4.7 +3.0 89 +4 +4 1019.2 1014.5
03 24.05 штиль 0 20 км 6/0
[Ci]
+9.9 +5.4 74 +9 +11 1020.1 1015.5 +3.6

 

Местоположение метеостанции Калач-на-Дону (Волгоградская область, Россия): широта 48.68 долгота 43.48 высота над уровнем моря 38 м.

В архиве по умолчанию представлена погода в Калаче-на-Дону за последнюю неделю. Архивные данные за месяц целиком и за предыдущие месяцы, начиная с января 2011 года, Вы можете получить, выбрав интересующий диапазон дат из раскрывающегося списка и нажав кнопку "Ввод!".

Внимание! Время в таблицах - всемирное. Для получения местного времени необходимо прибавить поправку, которая в Калаче-на-Дону равна 3 ч.

Смотрите также архив погоды в соседних городах и на ближайших метеорологических станциях:

Погода в Нижнем Чире (Волгоградская область, Россия) (47 км)
Погода в Волгограде (Волгоградская область, Россия) (66 км)
Погода в Волгограде город (Волгоградская область, Россия) (71 км)
Погода в Иловле (Волгоградская область, Россия) (79 км)
Погода в Серафимовиче (Волгоградская область, Россия) (113 км)
Погода в Котельниково (Волгоградская область, Россия) (119 км)
Погода в Малых Дербетах (Калмыкия, Россия) (123 км)
Погода в Морозовске (Ростовская область, Россия) (124 км)
Погода в Фролове (Волгоградская область, Россия) (125 км)
Погода в Боковской (Ростовская область, Россия) (135 км)

Пояснения к столбцам:

Ветер - указаны скорость ветра в м/с - средняя за 10 мин, порывы в срок и между сроками (в фигурных скобках) и направление, откуда дует ветер: С - северный, СВ - северо-восточный, В - восточный, ЮВ - юго-восточный, Ю - южный, ЮЗ - юго-западный, З - западный, СЗ - северо-западный.
Видимость - горизонтальная дальность видимости в метрах или километрах. При видимости от 1 до 10 км при отсутствии осадков обычно наблюдается дымка, при ухудшении видимости до 1 км и менее - туман. В сухую погоду видимость может ухудшаться дымом, пылью или мглою.
Явления - указаны атмосферные явления, наблюдавшиеся в срок или в последний час перед сроком; фигурными скобками обозначены явления, наблюдавшиеся между сроками (за 1-3 часа до срока); квадратными скобками обозначены град или гололедные отложения с указанием их диаметра в мм.
Облачность - указаны через наклонную черту общая и нижняя облачность в баллах и высота нижней границы облаков в метрах; квадратными скобками обозначены формы облаков: Ci - перистые, Cs - перисто-слоистые, Cc - перисто-кучевые, Ac - высококучевые, As - высокослоистые, Sc - слоисто-кучевые, Ns - слоисто-дождевые, Cu - кучевые, Cb - кучево-дождевые. Подробнее классификацию облаков см. в Атласе облаков (PDF).
T - Температура воздуха - температура, измеренная на высоте 2 м над землей.
Td - Температура точки росы - температура, при понижении до которой содержащийся в воздухе водяной пар достигнет насыщения.
f - Относительная влажность воздуха - влажноcть воздуха, измеренная на высоте 2 м над землей.
Te - Эффективная температура - температура, которую ощущает одетый по сезону человек в тени. Характеристика душности погоды. При расчете учитывается влияние влажности воздуха и скорости ветра на теплоощущения человека.
Tes - Эффективная температура на солнце - температура, которую ощущает человек, с поправкой на солнечный нагрев. Характеристика знойности погоды. Зависит от высоты солнца над горизонтом, облачности и скорости ветра. Ночью, в пасмурную погоду, а также при ветре 12 м/с и более поправка равна нулю.
P - Атмосферное давление - приведенное к уровню моря атмосферное давление.
Po - Атмосферное давление - измеренное на уровне метеостанции атмосферное давление.
Tmin - Минимальная температура - минимум температуры воздуха на высоте 2 м над землей.
Tmax - Максимальная температура - максимум температуры воздуха на высоте 2 м над землей.
R - Количество осадков - Количество выпавших осадков за период времени, мм. При наведении курсора мыши на число - период времени, за который выпало указанное количество осадков.
R24 - Количество осадков - Количество выпавших осадков за 24 часа, мм.
S - Снежный покров - Высота снежного покрова, см. При наведении курсора мыши на число - состояние снежного покрова и степень покрытия местности в баллах.